Location: *
(50.3194°N, 7.1067°E)
Time: 05:44:36
(UTC+00:00)

CZ-4C R/B - Pass Details

Date: 22 September 2019
Orbit: 654 x 1348 km, 63.4° (Epoch: 17 October)

Event Time Altitude Azimuth Distance (km) Brightness Sun altitude
Rises 19:10:48 0° 298° (WNW) 3,473 7.2 -16.5°
Reaches altitude 10° 19:13:34 10° 312° (NW) 2,645 5.9 -16.9°
Maximum altitude 19:18:49 27° 9° (N) 1,890 4.1 -17.7°
Enters shadow 19:24:40 11° 64° (ENE) 3,021 4.7 -18.5°
